Location: Mount Kobau Star Party
(49.1167°N, 119.7333°W)
Time: 12:31:39
(UTC-07:00)

ARIANE 6 FM1 Upper Stage - Pass Details

Date: 14 April 2026
Orbit: 526 x 601 km, 62.0° (Epoch: 18 May)

Event Time Altitude Azimuth Distance (km) Brightness Sun altitude
Rises 22:33:48 0° 289° (WNW) 2,701 7.1 -23.0°
Reaches altitude 10° 22:36:55 10° 314° (NW) 1,796 6.3 -23.4°
Maximum altitude 22:39:11 14° 349° (NNW) 1,524 5.6 -23.6°
Drops below altitude 10° 22:41:27 10° 23° (NNE) 1,783 5.6 -23.8°
Sets 22:44:31 0° 49° (NE) 2,667 6.2 -24.1°
